Time,TemperatureF,DewpointF,PressureIn,WindDirection,WindDirectionDegrees,WindSpeedMPH,WindSpeedGustMPH,Humidity,HourlyPrecipIn,Conditions,Clouds,dailyrainin,SoftwareType,DateUTC
2013-05-09 00:09:00,56.6,57.0,29.95,NNE,30,5.0,-999.0,100,-99.99,,,0.00,weatherlink.com 1.10,2013-05-08 21:09:00,
2013-05-09 00:24:00,56.6,57.0,29.95,ENE,68,12.0,-999.0,100,-99.99,,,0.00,weatherlink.com 1.10,2013-05-08 21:24:00,
2013-05-09 00:39:00,56.6,57.0,29.95,NNE,25,7.0,-999.0,100,-99.99,,,0.00,weatherlink.com 1.10,2013-05-08 21:39:00,
2013-05-09 00:54:00,56.6,57.0,29.95,NE,55,7.0,-999.0,100,-99.99,,,0.00,weatherlink.com 1.10,2013-05-08 21:54:00,
2013-05-09 01:09:00,56.6,57.0,29.95,ENE,65,5.0,-999.0,100,-99.99,,,0.00,weatherlink.com 1.10,2013-05-08 22:09:00,
2013-05-09 01:24:00,56.7,57.0,29.95,NNE,27,4.0,-999.0,100,-99.99,,,0.00,weatherlink.com 1.10,2013-05-08 22:24:00,
2013-05-09 01:39:00,56.7,57.0,29.95,NE,40,1.0,-999.0,100,-99.99,,,0.00,weatherlink.com 1.10,2013-05-08 22:39:00,
2013-05-09 01:54:00,56.7,57.0,29.95,North,11,5.0,-999.0,100,-99.99,,,0.00,weatherlink.com 1.10,2013-05-08 22:54:00,
2013-05-09 02:09:00,56.7,57.0,29.94,NE,34,3.0,-999.0,100,-99.99,,,0.00,weatherlink.com 1.10,2013-05-08 23:09:00,
2013-05-09 02:24:00,56.7,57.0,29.94,NNE,18,8.0,-999.0,100,-99.99,,,0.00,weatherlink.com 1.10,2013-05-08 23:24:00,
2013-05-09 02:39:00,56.9,57.0,29.93,North,3,2.0,-999.0,100,-99.99,,,0.00,weatherlink.com 1.10,2013-05-08 23:39:00,
2013-05-09 02:54:00,57.0,57.0,29.92,NNE,21,11.0,-999.0,100,-99.99,,,0.00,weatherlink.com 1.10,2013-05-08 23:54:00,
2013-05-09 03:09:00,56.9,57.0,29.92,NE,38,12.0,-999.0,100,-99.99,,,0.00,weatherlink.com 1.10,2013-05-09 00:09:00,
2013-05-09 03:24:00,57.0,57.0,29.92,NNE,13,11.0,-999.0,100,-99.99,,,0.00,weatherlink.com 1.10,2013-05-09 00:24:00,
2013-05-09 03:39:00,57.0,57.0,29.91,NE,34,6.0,-999.0,100,-99.99,,,0.00,weatherlink.com 1.10,2013-05-09 00:39:00,
2013-05-09 03:54:00,57.0,57.0,29.91,NE,34,8.0,-999.0,100,-99.99,,,0.00,weatherlink.com 1.10,2013-05-09 00:54:00,
2013-05-09 04:09:00,57.2,57.0,29.91,North,8,4.0,-999.0,100,-99.99,,,0.00,weatherlink.com 1.10,2013-05-09 01:09:00,
2013-05-09 04:24:00,57.0,57.0,29.90,NNE,24,7.0,-999.0,100,-99.99,,,0.00,weatherlink.com 1.10,2013-05-09 01:24:00,
2013-05-09 04:39:00,57.3,57.0,29.90,NE,37,14.0,-999.0,100,-99.99,,,0.00,weatherlink.com 1.10,2013-05-09 01:39:00,
2013-05-09 04:54:00,57.3,57.0,29.90,North,357,5.0,-999.0,100,-99.99,,,0.00,weatherlink.com 1.10,2013-05-09 01:54:00,
2013-05-09 05:09:00,57.3,57.0,29.90,NE,54,5.0,-999.0,100,-99.99,,,0.00,weatherlink.com 1.10,2013-05-09 02:09:00,
2013-05-09 05:24:00,57.3,57.0,29.90,NNE,25,6.0,-999.0,100,-99.99,,,0.00,weatherlink.com 1.10,2013-05-09 02:24:00,
2013-05-09 05:40:00,57.3,57.0,29.91,NE,35,5.0,-999.0,100,-99.99,,,0.00,weatherlink.com 1.10,2013-05-09 02:40:00,
2013-05-09 05:55:00,57.3,57.0,29.91,North,6,1.0,-999.0,100,-99.99,,,0.00,weatherlink.com 1.10,2013-05-09 02:55:00,
2013-05-09 06:10:00,57.3,57.0,29.91,NNE,27,8.0,-999.0,100,-99.99,,,0.00,weatherlink.com 1.10,2013-05-09 03:10:00,
2013-05-09 06:25:00,57.3,57.0,29.91,NNE,23,6.0,-999.0,100,-99.99,,,0.00,weatherlink.com 1.10,2013-05-09 03:25:00,
2013-05-09 06:40:00,57.5,58.0,29.91,ENE,68,5.0,-999.0,100,-99.99,,,0.00,weatherlink.com 1.10,2013-05-09 03:40:00,
2013-05-09 06:55:00,57.5,58.0,29.92,North,1,5.0,-999.0,100,-99.99,,,0.00,weatherlink.com 1.10,2013-05-09 03:55:00,
2013-05-09 07:10:00,57.5,58.0,29.92,NNE,25,5.0,-999.0,100,-99.99,,,0.00,weatherlink.com 1.10,2013-05-09 04:10:00,
2013-05-09 07:25:00,57.6,58.0,29.92,NE,40,3.0,-999.0,100,-99.99,,,0.00,weatherlink.com 1.10,2013-05-09 04:25:00,
2013-05-09 07:40:00,57.8,58.0,29.92,North,10,3.0,-999.0,100,-99.99,,,0.00,weatherlink.com 1.10,2013-05-09 04:40:00,
2013-05-09 07:55:00,57.8,58.0,29.92,NNE,30,6.0,-999.0,100,-99.99,,,0.00,weatherlink.com 1.10,2013-05-09 04:55:00,
2013-05-09 08:10:00,57.8,58.0,29.93,NE,37,1.0,-999.0,100,-99.99,,,0.00,weatherlink.com 1.10,2013-05-09 05:10:00,
2013-05-09 08:25:00,57.8,58.0,29.93,NNE,17,2.0,-999.0,100,-99.99,,,0.00,weatherlink.com 1.10,2013-05-09 05:25:00,
2013-05-09 08:40:00,57.8,58.0,29.93,NE,40,1.0,-999.0,100,-99.99,,,0.00,weatherlink.com 1.10,2013-05-09 05:40:00,
2013-05-09 08:55:00,57.8,58.0,29.93,NNE,31,0.0,-999.0,100,-99.99,,,0.00,weatherlink.com 1.10,2013-05-09 05:55:00,
2013-05-09 09:10:00,58.0,58.0,29.93,NNE,18,7.0,-999.0,100,-99.99,,,0.00,weatherlink.com 1.10,2013-05-09 06:10:00,
2013-05-09 09:25:00,57.8,58.0,29.93,North,3,6.0,-999.0,100,-99.99,,,0.00,weatherlink.com 1.10,2013-05-09 06:25:00,
2013-05-09 09:40:00,57.8,58.0,29.93,NNE,21,7.0,-999.0,100,-99.99,,,0.00,weatherlink.com 1.10,2013-05-09 06:40:00,
2013-05-09 09:55:00,57.8,58.0,29.93,NE,37,4.0,-999.0,100,-99.99,,,0.00,weatherlink.com 1.10,2013-05-09 06:55:00,
2013-05-09 10:10:00,58.1,58.0,29.94,NNE,18,0.0,-999.0,100,-99.99,,,0.00,weatherlink.com 1.10,2013-05-09 07:10:00,
2013-05-09 10:25:00,58.3,58.0,29.93,NE,45,0.0,-999.0,100,-99.99,,,0.00,weatherlink.com 1.10,2013-05-09 07:25:00,
2013-05-09 10:40:00,58.1,58.0,29.93,NE,34,6.0,-999.0,100,-99.99,,,0.00,weatherlink.com 1.10,2013-05-09 07:40:00,
2013-05-09 10:55:00,58.4,58.0,29.93,North,8,2.0,-999.0,100,-99.99,,,0.00,weatherlink.com 1.10,2013-05-09 07:55:00,
2013-05-09 11:10:00,58.7,59.0,29.93,North,11,5.0,-999.0,100,-99.99,,,0.00,weatherlink.com 1.10,2013-05-09 08:10:00,
2013-05-09 11:25:00,58.7,59.0,29.93,ENE,75,5.0,-999.0,100,-99.99,,,0.00,weatherlink.com 1.10,2013-05-09 08:25:00,
2013-05-09 11:40:00,58.6,59.0,29.93,NE,44,10.0,-999.0,100,-99.99,,,0.00,weatherlink.com 1.10,2013-05-09 08:40:00,
2013-05-09 11:55:00,58.3,58.0,29.93,NE,37,1.0,-999.0,100,-99.99,,,0.00,weatherlink.com 1.10,2013-05-09 08:55:00,
2013-05-09 12:10:00,58.7,59.0,29.93,North,1,4.0,-999.0,100,-99.99,,,0.00,weatherlink.com 1.10,2013-05-09 09:10:00,
2013-05-09 12:25:00,58.9,59.0,29.93,North,0,0.0,-999.0,100,-99.99,,,0.00,weatherlink.com 1.10,2013-05-09 09:25:00,
2013-05-09 12:40:00,58.9,59.0,29.94,NNE,30,6.0,-999.0,100,-99.99,,,0.00,weatherlink.com 1.10,2013-05-09 09:40:00,
2013-05-09 12:55:00,58.9,59.0,29.93,NNE,20,2.0,-999.0,100,-99.99,,,0.00,weatherlink.com 1.10,2013-05-09 09:55:00,
2013-05-09 13:10:00,58.9,59.0,29.93,ENE,66,4.0,-999.0,100,-99.99,,,0.00,weatherlink.com 1.10,2013-05-09 10:10:00,
2013-05-09 13:25:00,59.0,59.0,29.93,NNE,23,10.0,-999.0,100,-99.99,,,0.00,weatherlink.com 1.10,2013-05-09 10:25:00,
2013-05-09 13:40:00,58.9,59.0,29.93,NNE,14,5.0,-999.0,100,-99.99,,,0.00,weatherlink.com 1.10,2013-05-09 10:40:00,
2013-05-09 13:55:00,58.6,59.0,29.93,NNE,24,2.0,-999.0,100,-99.99,,,0.00,weatherlink.com 1.10,2013-05-09 10:55:00,
2013-05-09 14:10:00,58.6,59.0,29.93,NNE,18,1.0,-999.0,100,-99.99,,,0.00,weatherlink.com 1.10,2013-05-09 11:10:00,
2013-05-09 14:25:00,58.4,58.0,29.93,ENE,78,6.0,-999.0,100,-99.99,,,0.00,weatherlink.com 1.10,2013-05-09 11:25:00,
2013-05-09 14:40:00,58.0,58.0,29.93,NNE,20,11.0,-999.0,100,-99.99,,,0.00,weatherlink.com 1.10,2013-05-09 11:40:00,
2013-05-09 14:55:00,57.8,58.0,29.93,NNE,30,7.0,-999.0,100,-99.99,,,0.00,weatherlink.com 1.10,2013-05-09 11:55:00,
2013-05-09 15:10:00,57.8,58.0,29.93,NNE,24,12.0,-999.0,100,-99.99,,,0.00,weatherlink.com 1.10,2013-05-09 12:10:00,
2013-05-09 15:25:00,57.8,58.0,29.93,North,0,6.0,-999.0,100,-99.99,,,0.00,weatherlink.com 1.10,2013-05-09 12:25:00,
2013-05-09 15:40:00,57.5,58.0,29.93,NE,34,6.0,-999.0,100,-99.99,,,0.00,weatherlink.com 1.10,2013-05-09 12:40:00,
2013-05-09 15:55:00,57.5,58.0,29.93,NNE,25,12.0,-999.0,100,-99.99,,,0.00,weatherlink.com 1.10,2013-05-09 12:55:00,
2013-05-09 16:10:00,57.3,57.0,29.92,NNE,24,7.0,-999.0,100,-99.99,,,0.00,weatherlink.com 1.10,2013-05-09 13:10:00,
2013-05-09 16:25:00,57.3,57.0,29.92,North,11,10.0,-999.0,100,-99.99,,,0.00,weatherlink.com 1.10,2013-05-09 13:25:00,
2013-05-09 16:40:00,57.0,57.0,29.92,North,353,6.0,-999.0,100,-99.99,,,0.00,weatherlink.com 1.10,2013-05-09 13:40:00,
2013-05-09 16:48:00,57.0,57.0,29.92,NE,42,7.0,-999.0,100,-99.99,,,0.00,weatherlink.com 1.10,2013-05-09 13:48:00,
2013-05-09 17:03:00,56.9,57.0,29.92,NNE,25,11.0,-999.0,100,-99.99,,,0.00,weatherlink.com 1.10,2013-05-09 14:03:00,
2013-05-09 17:18:00,57.0,57.0,29.91,NNE,16,8.0,-999.0,100,-99.99,,,0.00,weatherlink.com 1.10,2013-05-09 14:18:00,
2013-05-09 17:33:00,57.0,57.0,29.91,NNE,30,13.0,-999.0,100,-99.99,,,0.00,weatherlink.com 1.10,2013-05-09 14:33:00,
2013-05-09 17:48:00,57.0,57.0,29.91,NNE,25,5.0,-999.0,100,-99.99,,,0.00,weatherlink.com 1.10,2013-05-09 14:48:00,
2013-05-09 18:03:00,57.0,57.0,29.91,NNE,32,8.0,-999.0,100,-99.99,,,0.00,weatherlink.com 1.10,2013-05-09 15:03:00,
2013-05-09 18:18:00,57.0,57.0,29.91,NNE,25,7.0,-999.0,100,-99.99,,,0.00,weatherlink.com 1.10,2013-05-09 15:18:00,
2013-05-09 18:33:00,56.7,57.0,29.91,NE,34,8.0,-999.0,100,-99.99,,,0.00,weatherlink.com 1.10,2013-05-09 15:33:00,
2013-05-09 18:48:00,56.6,57.0,29.91,NNE,20,11.0,-999.0,100,-99.99,,,0.00,weatherlink.com 1.10,2013-05-09 15:48:00,
2013-05-09 19:03:00,56.3,56.0,29.91,NNE,24,10.0,-999.0,100,-99.99,,,0.00,weatherlink.com 1.10,2013-05-09 16:03:00,
2013-05-09 19:18:00,56.3,56.0,29.92,NNE,25,5.0,-999.0,100,-99.99,,,0.00,weatherlink.com 1.10,2013-05-09 16:18:00,
2013-05-09 19:33:00,56.5,57.0,29.92,NNE,28,6.0,-999.0,100,-99.99,,,0.00,weatherlink.com 1.10,2013-05-09 16:33:00,
2013-05-09 19:49:00,56.3,56.0,29.92,NE,41,4.0,-999.0,100,-99.99,,,0.00,weatherlink.com 1.10,2013-05-09 16:49:00,
2013-05-09 20:03:00,56.2,56.0,29.92,NNE,24,4.0,-999.0,100,-99.99,,,0.00,weatherlink.com 1.10,2013-05-09 17:03:00,
2013-05-09 20:18:00,56.2,56.0,29.93,NNE,25,5.0,-999.0,100,-99.99,,,0.00,weatherlink.com 1.10,2013-05-09 17:18:00,
2013-05-09 20:33:00,56.3,56.0,29.93,NE,52,1.0,-999.0,100,-99.99,,,0.00,weatherlink.com 1.10,2013-05-09 17:33:00,
2013-05-09 20:48:00,56.3,56.0,29.93,NE,37,3.0,-999.0,100,-99.99,,,0.00,weatherlink.com 1.10,2013-05-09 17:48:00,
2013-05-09 21:03:00,56.5,57.0,29.93,NE,34,6.0,-999.0,100,-99.99,,,0.00,weatherlink.com 1.10,2013-05-09 18:03:00,
2013-05-09 21:18:00,56.6,57.0,29.93,NE,51,5.0,-999.0,100,-99.99,,,0.00,weatherlink.com 1.10,2013-05-09 18:18:00,
2013-05-09 21:33:00,56.6,57.0,29.93,NE,40,8.0,-999.0,100,-99.99,,,0.00,weatherlink.com 1.10,2013-05-09 18:33:00,
2013-05-09 21:48:00,56.5,57.0,29.93,North,6,6.0,-999.0,100,-99.99,,,0.00,weatherlink.com 1.10,2013-05-09 18:48:00,
2013-05-09 22:03:00,56.5,57.0,29.94,NE,55,2.0,-999.0,100,-99.99,,,0.00,weatherlink.com 1.10,2013-05-09 19:03:00,
2013-05-09 22:18:00,56.5,57.0,29.94,NE,52,6.0,-999.0,100,-99.99,,,0.00,weatherlink.com 1.10,2013-05-09 19:18:00,
2013-05-09 22:33:00,56.3,56.0,29.94,NE,34,5.0,-999.0,100,-99.99,,,0.00,weatherlink.com 1.10,2013-05-09 19:33:00,
2013-05-09 22:48:00,56.3,56.0,29.94,North,0,2.0,-999.0,100,-99.99,,,0.00,weatherlink.com 1.10,2013-05-09 19:48:00,
2013-05-09 23:03:00,56.3,56.0,29.94,NE,45,5.0,-999.0,100,-99.99,,,0.00,weatherlink.com 1.10,2013-05-09 20:03:00,
2013-05-09 23:18:00,56.3,56.0,29.95,NE,37,6.0,-999.0,100,-99.99,,,0.00,weatherlink.com 1.10,2013-05-09 20:18:00,
2013-05-09 23:33:00,56.0,56.0,29.94,NE,45,3.0,-999.0,100,-99.99,,,0.00,weatherlink.com 1.10,2013-05-09 20:33:00,
2013-05-09 23:48:00,56.0,56.0,29.94,NNE,31,4.0,-999.0,100,-99.99,,,0.00,weatherlink.com 1.10,2013-05-09 20:48:00,